{"data":{"norad_id":66218,"intl_designator":"2025-244N","name":"STARLINK-35722","alt_names":[],"object_type":"PAYLOAD","status":"ACTIVE","operator":null,"country":"US","launch_date":"2025-10-28","launch_site_code":"AFWTR","launch_vehicle":null,"mission":null,"orbit_class":"UNKNOWN","rcs_meters":null,"size_class":null,"mass_kg":null,"dimensions":null,"purposes":["comms"],"wikipedia_slug":null,"has_3d_model":false,"image_url":null,"decayed_at":null,"tle_current":{"epoch":"2026-05-24T16:00:27.173088Z","epoch_age_seconds":107085,"freshness":"FRESH","line1":"1 66218U 25244N   26144.66698117  .00022823  00000+0  78055-3 0  9995","line2":"2 66218  53.1580 236.8857 0001169  79.5428 280.5704 15.30190804 33292","mean_motion":15.30190804,"eccentricity":0.0001169,"inclination_deg":53.158,"raan_deg":236.8857,"arg_perigee_deg":79.5428,"mean_anomaly_deg":280.5704,"bstar":0.00078055,"rev_number":3329,"period_min":94.105911252098,"perigee_km":474.44136708852,"apogee_km":476.04368722197,"semimajor_km":6853.3795271552,"source":"CELESTRAK","updated_at":"2026-05-25T13:38:21.129136Z"}}}